Location: Newark
(48.6461°N, 4.3644°W)
Time: 21:07:25
(UTC+00:00)

Transit 4A - Pass Details

Date: 01 February 2020
Orbit: 872 x 973 km, 66.8° (Epoch: 20 February)

Event Time Altitude Azimuth Distance (km) Brightness Sun altitude
Rises 08:58:15 0° 293° (WNW) 3,499 10.3 9.0°
Reaches altitude 10° 09:02:11 10° 319° (NW) 2,545 9.6 9.5°
Maximum altitude 09:05:07 14° 349° (N) 2,273 9.5 9.9°
Drops below altitude 10° 09:08:02 10° 20° (NNE) 2,533 10.0 10.2°
Sets 09:11:56 0° 45° (NE) 3,470 10.9 10.7°
